Location: Luxembourg
(49.6117°N, 6.1300°E)
Time: 01:41:26
(UTC+01:00)

OTV 5 (USA 277) - Pass Details

Date: 01 February 2019
Orbit: 342 x 346 km, 54.5° (Epoch: 17 February)

Event Time Altitude Azimuth Distance (km) Brightness Sun altitude
Exits shadow 07:07:07 17° 285° (WNW) 988 ? -10.1°
Maximum altitude 07:09:00 36° 346° (NNW) 567 ? -9.8°
Drops below altitude 10° 07:11:43 10° 57° (ENE) 1,299 ? -9.4°
Sets 07:13:48 0° 66° (ENE) 2,141 ? -9.1°
